Time,TemperatureF,DewpointF,PressureIn,WindDirection,WindDirectionDegrees,WindSpeedMPH,WindSpeedGustMPH,Humidity,HourlyPrecipIn,Conditions,Clouds,dailyrainin,SoftwareType,DateUTC
2013-02-08 00:04:00,44.6,44.3,29.91,NW,315,11.4,-999.0,99,-99.99,,,0.00,Acu-Link.com,2013-02-08 06:04:00,
2013-02-08 00:19:00,44.4,44.1,29.92,NW,315,15.0,-999.0,99,-99.99,,,0.00,Acu-Link.com,2013-02-08 06:19:00,
2013-02-08 00:34:00,43.9,43.6,29.92,WNW,292,9.9,-999.0,99,-99.99,,,0.00,Acu-Link.com,2013-02-08 06:34:00,
2013-02-08 00:49:00,43.3,43.0,29.93,NNW,337,10.9,-999.0,99,-99.99,,,0.00,Acu-Link.com,2013-02-08 06:49:00,
2013-02-08 01:04:00,42.8,42.5,29.94,NNW,337,12.5,-999.0,99,-99.99,,,0.00,Acu-Link.com,2013-02-08 07:04:00,
2013-02-08 01:19:00,42.4,42.1,29.93,NW,315,10.9,-999.0,99,-99.99,,,0.00,Acu-Link.com,2013-02-08 07:19:00,
2013-02-08 01:35:00,42.3,42.0,29.94,NW,315,9.4,-999.0,99,-99.99,,,0.00,Acu-Link.com,2013-02-08 07:35:00,
2013-02-08 01:50:00,42.3,42.0,29.95,NNW,337,8.9,-999.0,99,-99.99,,,0.00,Acu-Link.com,2013-02-08 07:50:00,
2013-02-08 02:05:00,41.9,41.6,29.96,NW,315,14.0,-999.0,99,-99.99,,,0.00,Acu-Link.com,2013-02-08 08:05:00,
2013-02-08 02:20:00,41.7,41.4,29.96,North,0,14.0,-999.0,99,-99.99,,,0.00,Acu-Link.com,2013-02-08 08:20:00,
2013-02-08 02:35:00,41.7,41.4,29.97,NNW,337,7.3,-999.0,99,-99.99,,,0.00,Acu-Link.com,2013-02-08 08:35:00,
2013-02-08 02:50:00,41.5,41.2,29.98,NNW,337,6.3,-999.0,99,-99.99,,,0.00,Acu-Link.com,2013-02-08 08:50:00,
2013-02-08 03:05:00,41.5,41.2,29.98,NNE,22,5.3,-999.0,99,-99.99,,,0.00,Acu-Link.com,2013-02-08 09:05:00,
2013-02-08 03:20:00,41.0,40.7,29.99,WNW,292,7.8,-999.0,99,-99.99,,,0.00,Acu-Link.com,2013-02-08 09:20:00,
2013-02-08 03:35:00,40.6,40.3,30.00,NNW,337,11.4,-999.0,99,-99.99,,,0.00,Acu-Link.com,2013-02-08 09:35:00,
2013-02-08 03:51:00,40.3,40.0,30.01,NW,315,9.9,-999.0,99,-99.99,,,0.00,Acu-Link.com,2013-02-08 09:51:00,
2013-02-08 04:06:00,39.9,39.6,30.02,North,0,9.4,-999.0,99,-99.99,,,0.00,Acu-Link.com,2013-02-08 10:06:00,
2013-02-08 04:21:00,39.6,39.3,30.03,North,0,10.9,-999.0,99,-99.99,,,0.00,Acu-Link.com,2013-02-08 10:21:00,
2013-02-08 04:36:00,39.6,39.3,30.04,WNW,292,9.4,-999.0,99,-99.99,,,0.00,Acu-Link.com,2013-02-08 10:36:00,
2013-02-08 04:51:00,39.0,38.7,30.05,North,0,6.8,-999.0,99,-99.99,,,0.00,Acu-Link.com,2013-02-08 10:51:00,
2013-02-08 05:06:00,39.0,38.7,30.06,North,0,7.8,-999.0,99,-99.99,,,0.00,Acu-Link.com,2013-02-08 11:06:00,
2013-02-08 05:21:00,39.0,38.7,30.06,NNE,22,6.8,-999.0,99,-99.99,,,0.00,Acu-Link.com,2013-02-08 11:21:00,
2013-02-08 05:36:00,39.0,38.7,30.06,NNW,337,12.5,-999.0,99,-99.99,,,0.00,Acu-Link.com,2013-02-08 11:36:00,
2013-02-08 05:51:00,38.8,38.5,30.07,NNW,337,5.8,-999.0,99,-99.99,,,0.00,Acu-Link.com,2013-02-08 11:51:00,
2013-02-08 06:07:00,38.7,38.4,30.08,NNW,337,7.3,-999.0,99,-99.99,,,0.00,Acu-Link.com,2013-02-08 12:07:00,
2013-02-08 06:22:00,38.7,38.4,30.09,NNW,337,6.8,-999.0,99,-99.99,,,0.00,Acu-Link.com,2013-02-08 12:22:00,
2013-02-08 06:37:00,38.1,37.8,30.10,NNW,337,13.0,-999.0,99,-99.99,,,0.00,Acu-Link.com,2013-02-08 12:37:00,
2013-02-08 06:52:00,37.9,37.6,30.11,NNW,337,10.4,-999.0,99,-99.99,,,0.00,Acu-Link.com,2013-02-08 12:52:00,
2013-02-08 07:07:00,37.9,37.6,30.12,NW,315,7.3,-999.0,99,-99.99,,,0.00,Acu-Link.com,2013-02-08 13:07:00,
2013-02-08 07:22:00,37.6,37.3,30.14,NW,315,8.3,-999.0,99,-99.99,,,0.00,Acu-Link.com,2013-02-08 13:22:00,
2013-02-08 07:37:00,37.0,36.7,30.15,NW,315,11.4,-999.0,99,-99.99,,,0.00,Acu-Link.com,2013-02-08 13:37:00,
2013-02-08 07:52:00,36.9,36.6,30.16,WNW,292,13.0,-999.0,99,-99.99,,,0.00,Acu-Link.com,2013-02-08 13:52:00,
2013-02-08 08:07:00,36.9,36.6,30.17,WNW,292,9.4,-999.0,99,-99.99,,,0.00,Acu-Link.com,2013-02-08 14:07:00,
2013-02-08 08:23:00,36.7,36.4,30.18,NNW,337,10.4,-999.0,99,-99.99,,,0.00,Acu-Link.com,2013-02-08 14:23:00,
2013-02-08 08:38:00,36.3,36.0,30.19,NNE,22,7.3,-999.0,99,-99.99,,,0.00,Acu-Link.com,2013-02-08 14:38:00,
2013-02-08 08:53:00,36.7,36.4,30.20,NNE,22,9.4,-999.0,99,-99.99,,,0.00,Acu-Link.com,2013-02-08 14:53:00,
2013-02-08 09:08:00,36.7,36.4,30.20,NNW,337,9.4,-999.0,99,-99.99,,,0.00,Acu-Link.com,2013-02-08 15:08:00,
2013-02-08 09:23:00,36.9,36.6,30.21,NW,315,9.4,-999.0,99,-99.99,,,0.00,Acu-Link.com,2013-02-08 15:23:00,
2013-02-08 09:38:00,37.0,36.7,30.21,NNW,337,7.8,-999.0,99,-99.99,,,0.00,Acu-Link.com,2013-02-08 15:38:00,
2013-02-08 09:53:00,37.8,37.5,30.21,NW,315,6.8,-999.0,99,-99.99,,,0.00,Acu-Link.com,2013-02-08 15:53:00,
2013-02-08 10:08:00,38.3,38.0,30.22,NW,315,8.3,-999.0,99,-99.99,,,0.00,Acu-Link.com,2013-02-08 16:08:00,
2013-02-08 10:23:00,38.3,38.0,30.22,NNW,337,10.9,-999.0,99,-99.99,,,0.00,Acu-Link.com,2013-02-08 16:23:00,
2013-02-08 10:39:00,38.7,38.4,30.23,NNW,337,8.9,-999.0,99,-99.99,,,0.00,Acu-Link.com,2013-02-08 16:39:00,
2013-02-08 10:54:00,38.1,37.8,30.24,NNE,22,8.3,-999.0,99,-99.99,,,0.00,Acu-Link.com,2013-02-08 16:54:00,
2013-02-08 11:09:00,37.6,37.3,30.25,WNW,292,8.3,-999.0,99,-99.99,,,0.00,Acu-Link.com,2013-02-08 17:09:00,
2013-02-08 11:24:00,37.9,37.6,30.24,North,0,7.3,-999.0,99,-99.99,,,0.00,Acu-Link.com,2013-02-08 17:24:00,
2013-02-08 11:39:00,39.2,38.9,30.24,NNW,337,10.9,-999.0,99,-99.99,,,0.00,Acu-Link.com,2013-02-08 17:39:00,
2013-02-08 11:54:00,40.1,39.8,30.24,NW,315,7.8,-999.0,99,-99.99,,,0.00,Acu-Link.com,2013-02-08 17:54:00,
2013-02-08 12:09:00,41.0,40.7,30.23,NW,315,10.4,-999.0,99,-99.99,,,0.00,Acu-Link.com,2013-02-08 18:09:00,
2013-02-08 12:24:00,39.9,39.6,30.23,NW,315,5.8,-999.0,99,-99.99,,,0.00,Acu-Link.com,2013-02-08 18:24:00,
2013-02-08 12:40:00,40.5,40.2,30.23,NNW,337,6.8,-999.0,99,-99.99,,,0.00,Acu-Link.com,2013-02-08 18:40:00,
2013-02-08 13:10:00,40.1,39.8,30.23,NNW,337,7.8,-999.0,99,-99.99,,,0.00,Acu-Link.com,2013-02-08 19:10:00,
2013-02-08 13:25:00,40.1,39.8,30.23,NE,45,4.2,-999.0,99,-99.99,,,0.00,Acu-Link.com,2013-02-08 19:25:00,
2013-02-08 13:40:00,40.8,40.5,30.23,NNW,337,6.3,-999.0,99,-99.99,,,0.00,Acu-Link.com,2013-02-08 19:40:00,
2013-02-08 13:55:00,40.8,40.5,30.23,NE,45,4.2,-999.0,99,-99.99,,,0.00,Acu-Link.com,2013-02-08 19:55:00,
2013-02-08 14:10:00,40.5,40.2,30.23,NNW,337,4.2,-999.0,99,-99.99,,,0.00,Acu-Link.com,2013-02-08 20:10:00,
2013-02-08 14:25:00,40.3,40.0,30.23,NNW,337,6.3,-999.0,99,-99.99,,,0.00,Acu-Link.com,2013-02-08 20:25:00,
2013-02-08 14:40:00,40.1,39.8,30.24,NNW,337,6.8,-999.0,99,-99.99,,,0.00,Acu-Link.com,2013-02-08 20:40:00,
2013-02-08 14:56:00,39.7,39.4,30.25,NNW,337,6.3,-999.0,99,-99.99,,,0.00,Acu-Link.com,2013-02-08 20:56:00,
2013-02-08 15:11:00,39.6,39.3,30.26,NE,45,4.7,-999.0,99,-99.99,,,0.00,Acu-Link.com,2013-02-08 21:11:00,
2013-02-08 15:26:00,39.6,39.3,30.26,NNW,337,5.8,-999.0,99,-99.99,,,0.00,Acu-Link.com,2013-02-08 21:26:00,
2013-02-08 15:41:00,39.4,39.1,30.26,NNE,22,4.2,-999.0,99,-99.99,,,0.00,Acu-Link.com,2013-02-08 21:41:00,
2013-02-08 15:56:00,39.2,38.9,30.27,NNW,337,6.3,-999.0,99,-99.99,,,0.00,Acu-Link.com,2013-02-08 21:56:00,
2013-02-08 16:11:00,38.8,38.5,30.27,NNW,337,5.3,-999.0,99,-99.99,,,0.00,Acu-Link.com,2013-02-08 22:11:00,
2013-02-08 16:26:00,38.1,37.8,30.27,North,0,5.8,-999.0,99,-99.99,,,0.00,Acu-Link.com,2013-02-08 22:26:00,
2013-02-08 16:41:00,37.8,37.5,30.28,NNW,337,4.7,-999.0,99,-99.99,,,0.00,Acu-Link.com,2013-02-08 22:41:00,
2013-02-08 16:57:00,37.4,37.1,30.29,NNE,22,6.8,-999.0,99,-99.99,,,0.00,Acu-Link.com,2013-02-08 22:57:00,
2013-02-08 17:12:00,37.4,37.1,30.30,NNW,337,4.2,-999.0,99,-99.99,,,0.00,Acu-Link.com,2013-02-08 23:12:00,
2013-02-08 17:27:00,36.9,36.6,30.31,NNW,337,3.7,-999.0,99,-99.99,,,0.00,Acu-Link.com,2013-02-08 23:27:00,
2013-02-08 17:42:00,36.3,36.0,30.31,NNW,337,5.3,-999.0,99,-99.99,,,0.00,Acu-Link.com,2013-02-08 23:42:00,
2013-02-08 17:57:00,36.0,35.7,30.31,NNE,22,3.7,-999.0,99,-99.99,,,0.00,Acu-Link.com,2013-02-08 23:57:00,
2013-02-08 18:12:00,35.6,35.3,30.32,NE,45,2.7,-999.0,99,-99.99,,,0.00,Acu-Link.com,2013-02-09 00:12:00,
2013-02-08 18:27:00,35.2,34.9,30.32,NW,315,2.2,-999.0,99,-99.99,,,0.00,Acu-Link.com,2013-02-09 00:27:00,
2013-02-08 18:42:00,35.1,34.8,30.30,ENE,67,6.3,-999.0,99,-99.99,,,0.00,Acu-Link.com,2013-02-09 00:42:00,
2013-02-08 18:57:00,34.9,34.6,30.29,ENE,67,3.7,-999.0,99,-99.99,,,0.00,Acu-Link.com,2013-02-09 00:57:00,
2013-02-08 19:12:00,34.7,34.4,30.29,ENE,67,5.3,-999.0,99,-99.99,,,0.00,Acu-Link.com,2013-02-09 01:12:00,
2013-02-08 19:28:00,34.5,34.2,30.29,East,90,4.2,-999.0,99,-99.99,,,0.00,Acu-Link.com,2013-02-09 01:28:00,
2013-02-08 19:43:00,34.3,34.0,30.29,NE,45,3.7,-999.0,99,-99.99,,,0.00,Acu-Link.com,2013-02-09 01:43:00,
2013-02-08 19:58:00,34.2,33.9,30.30,NNW,337,4.7,-999.0,99,-99.99,,,0.00,Acu-Link.com,2013-02-09 01:58:00,
2013-02-08 20:13:00,34.2,33.9,30.30,ENE,67,4.7,-999.0,99,-99.99,,,0.00,Acu-Link.com,2013-02-09 02:13:00,
2013-02-08 20:28:00,34.2,33.9,30.30,East,90,3.2,-999.0,99,-99.99,,,0.00,Acu-Link.com,2013-02-09 02:28:00,
2013-02-08 20:43:00,34.0,33.7,30.31,NNE,22,3.7,-999.0,99,-99.99,,,0.00,Acu-Link.com,2013-02-09 02:43:00,
2013-02-08 20:58:00,34.2,33.9,30.33,NNE,22,4.7,-999.0,99,-99.99,,,0.00,Acu-Link.com,2013-02-09 02:58:00,
2013-02-08 21:13:00,34.2,33.9,30.33,NNE,22,1.1,-999.0,99,-99.99,,,0.00,Acu-Link.com,2013-02-09 03:13:00,
2013-02-08 21:28:00,34.3,34.0,30.33,NNW,337,2.2,-999.0,99,-99.99,,,0.00,Acu-Link.com,2013-02-09 03:28:00,
2013-02-08 21:44:00,34.3,34.0,30.32,ENE,67,5.8,-999.0,99,-99.99,,,0.00,Acu-Link.com,2013-02-09 03:44:00,
2013-02-08 21:59:00,33.6,33.3,30.31,NE,45,5.8,-999.0,99,-99.99,,,0.00,Acu-Link.com,2013-02-09 03:59:00,
2013-02-08 22:14:00,33.4,33.1,30.31,East,90,4.2,-999.0,99,-99.99,,,0.00,Acu-Link.com,2013-02-09 04:14:00,
2013-02-08 22:29:00,32.9,32.7,30.32,NE,45,3.7,-999.0,99,-99.99,,,0.00,Acu-Link.com,2013-02-09 04:29:00,
2013-02-08 22:44:00,32.7,32.5,30.32,East,90,3.7,-999.0,99,-99.99,,,0.00,Acu-Link.com,2013-02-09 04:44:00,
2013-02-08 22:59:00,32.7,32.5,30.33,ENE,67,2.2,-999.0,99,-99.99,,,0.00,Acu-Link.com,2013-02-09 04:59:00,
2013-02-08 23:15:00,32.9,32.7,30.32,ENE,67,3.7,-999.0,99,-99.99,,,0.00,Acu-Link.com,2013-02-09 05:15:00,
2013-02-08 23:30:00,32.9,32.7,30.32,ESE,112,4.2,-999.0,99,-99.99,,,0.00,Acu-Link.com,2013-02-09 05:30:00,
2013-02-08 23:45:00,32.5,32.3,30.31,ESE,112,4.7,-999.0,99,-99.99,,,0.00,Acu-Link.com,2013-02-09 05:45:00,